Location: Emory University Observatory
(33.7903°N, 84.3267°W)
Time: 10:39:45
(UTC-05:00)

Vanguard 2 - All Passes

Search period start: 25 February 2018 00:00
Search period end: 07 March 2018 00:00
Orbit: 553 x 2939 km, 32.9° (Epoch: 24 February)

Date Brightness Start Highest point End Pass type
(mag) Time Alt. Az. Time Alt. Az. Time Alt. Az.
25 Feb - 12:46:05 10° S 12:58:26 24° SE 13:09:05 10° E daylight
25 Feb - 14:53:49 10° SW 15:09:55 51° SSE 15:21:04 10° E daylight
25 Feb - 17:06:15 10° WSW 17:21:05 79° S 17:29:55 10° E daylight
25 Feb - 19:20:05 10° W 19:31:19 82° S 19:37:48 10° E visible
25 Feb - 21:32:51 10° W 21:39:55 39° SSW 21:44:36 10° SE visible
26 Feb - 13:02:11 10° SSW 13:16:32 31° SE 13:28:29 10° E daylight
26 Feb - 15:11:31 10° SW 15:28:07 60° SSE 15:39:21 10° E daylight
26 Feb - 17:24:41 10° W 17:39:21 84° S 17:47:59 10° E daylight
26 Feb - 19:38:32 10° W 19:49:27 75° SSW 19:55:46 10° ESE visible
26 Feb - 21:51:29 10° W 21:57:39 28° SW 22:01:58 10° SSE visible
27 Feb - 11:15:57 10° SSE 11:23:20 14° SE 11:30:31 10° ESE daylight
27 Feb - 13:18:54 10° SSW 13:34:37 39° SSE 13:47:22 10° E daylight
27 Feb - 15:29:28 10° WSW 15:46:21 69° SSE 15:57:31 10° E daylight
27 Feb - 17:43:11 10° W 17:57:37 86° S 18:06:04 10° E daylight
27 Feb - 19:57:00 10° W 20:07:31 65° SSW 20:13:40 10° ESE visible
27 Feb - 22:10:28 10° W 22:15:14 19° SW 22:18:51 10° S visible
28 Feb - 11:30:03 10° S 11:41:18 21° SE 11:52:02 10° E daylight
28 Feb - 13:36:04 10° SW 13:52:44 48° SSE 14:05:56 10° E daylight
28 Feb - 15:47:40 10° WSW 16:04:38 77° SSE 16:15:40 10° E daylight
28 Feb - 18:01:44 10° W 18:15:53 85° S 18:24:08 10° E daylight
28 Feb - 20:15:29 10° W 20:25:27 53° SSW 20:31:26 10° SE visible
28 Feb - 22:30:33 10° WSW 22:32:42 12° SW 22:34:37 10° SSW visible
01 Mar - 11:45:44 10° S 11:59:13 28° SE 12:11:57 10° E daylight
01 Mar - 13:53:35 10° SW 14:10:53 57° SSE 14:24:18 10° E daylight
01 Mar - 16:06:01 10° WSW 16:22:57 82° S 16:33:48 10° E daylight
01 Mar - 18:20:16 10° W 18:34:07 81° S 18:42:09 10° ESE daylight
01 Mar - 20:34:02 10° W 20:43:15 41° SSW 20:49:00 10° SE visible
02 Mar - 12:02:10 10° SSW 12:17:10 36° SE 12:31:08 10° E daylight
02 Mar - 14:11:23 10° SW 14:29:06 66° SSE 14:42:35 10° E daylight
02 Mar - 16:24:29 10° W 16:41:17 86° S 16:51:55 10° E daylight
02 Mar - 18:38:47 10° W 18:52:16 74° SSW 19:00:08 10° ESE visible
02 Mar - 20:52:45 10° W 21:00:53 30° SW 21:06:17 10° SSE visible
03 Mar - 10:15:24 10° SSE 10:24:13 16° SE 10:33:21 10° ESE daylight
03 Mar - 12:19:06 10° SSW 12:35:08 45° SSE 12:49:54 10° E daylight
03 Mar - 14:29:25 10° WSW 14:47:23 74° SSE 15:00:48 10° E daylight
03 Mar - 16:43:02 10° W 16:59:38 87° S 17:10:02 10° E daylight
03 Mar - 18:57:18 10° W 19:10:20 65° SSW 19:18:00 10° ESE visible
03 Mar - 21:11:49 10° W 21:18:23 21° SW 21:23:09 10° S visible
04 Mar - 10:30:21 10° S 10:41:58 23° SE 10:54:09 10° E daylight
04 Mar - 12:36:25 10° SW 12:53:10 54° SSE 13:08:27 10° E daylight
04 Mar - 14:47:39 10° WSW 15:05:42 80° SSE 15:18:59 10° E daylight
04 Mar - 17:01:35 10° W 17:17:58 85° S 17:28:08 10° E daylight
04 Mar - 19:15:50 10° W 19:28:16 53° SSW 19:35:43 10° SE visible
04 Mar - 21:31:44 10° WSW 21:35:47 14° SW 21:39:07 10° SSW visible
05 Mar - 10:46:25 10° SSW 10:59:42 31° SE 11:13:49 10° E daylight
05 Mar - 12:54:02 10° SW 13:11:18 62° SSE 13:26:49 10° E daylight
05 Mar - 15:06:01 10° WSW 15:24:06 85° S 15:37:11 10° E daylight
05 Mar - 17:20:07 10° W 17:36:15 80° SSW 17:46:11 10° ESE daylight
05 Mar - 19:34:27 10° W 19:46:01 42° SW 19:53:14 10° SE visible
06 Mar - 09:03:37 10° SE 09:07:28 11° SE 09:11:31 10° ESE daylight
06 Mar - 11:03:05 10° SSW 11:17:29 39° SE 11:32:53 10° E daylight
06 Mar - 13:11:54 10° WSW 13:29:31 71° SSE 13:45:08 10° E daylight
06 Mar - 15:24:28 10° W 15:42:31 87° S 15:55:22 10° E daylight
06 Mar - 17:38:39 10° W 17:54:26 73° SSW 18:04:09 10° ESE daylight
06 Mar - 19:53:16 10° W 20:03:38 32° SW 20:10:27 10° SSE visible
